Etusivu
METAR-TAF:

METAR-TAF

Lentoasemat :

Warroad International Airport (Swede Carlson Field)

Warroad, Minnesota, Yhdysvallat

Leveyspiiri: 48-56-29N, Pituuspiiri: 095-20-54W, korkeus merenpinnasta: 327 m

Tämänhetkinen sää

Tämä raportti tehtiin 26 minuuttia sitten, kello 09.15 UTC
Tuuli 4 kn etelästä
Lämpötila -8°C
Kosteus 85%
Ilmanpaine 1008 hPa
Näkyvyys: 16.1 km
Pilvistä 1500 ft:n korkeudessa

METAR: KRRT 130915Z AUTO 19004KT 10SM OVC015 M08/M10 A2978 RMK AO2

Aika: 03:41 (09:41 UTC)


TAF: puuttuu

Säähavainnot ja -ennusteet yli 4000 lentoasemalta (METAR- ja TAF-raportit).

Käytössä olevat sääasemat on merkitty karttaan keltaisilla ja punaisilla pisteillä.

Aseta hiiri pisteen päälle nähdäksesi sääaseman nimen.

Klikkaa sitten nähdäksesi säähavainnot ja -ennusteet.

Kartan vaihtaminen: klikkaa mustalla rastilla varustettuja vihreitä pisteitä, niin voit zoomata sisään; viivalla varustettua vihreää pistettä, niin voit zoomata ulos tai vihreitä nuolia, niin pääset viereisille kartoille.


METAR-TAF: